GEFSCGP_con_maxscp_288.txt.gz
SCP
0 0 0 0 0 0 0 0 0 0 0 0 0 0 1 1 1 1 1 2 2 1 1 0 0 0 0 0 0 0 1 1 1 2 2 2 2 2 2 2 1 2 3 4
0 0 0 0 0 0 0 0 0 0 0 0 0 0 1 1 2 1 1 2 2 1 1 0 0 0 0 0 0 1 1 1 1 2 3 2 2 2 2 2 2 2 3 5
0 0 0 0 0 0 0 0 0 0 0 1 0 0 0 1 2 2 1 1 1 1 1 0 1 0 0 0 1 1 1 2 3 3 4 3 2 2 2 2 2 3 4 5
0 0 0 0 0 0 0 0 0 0 1 1 0 0 0 1 1 2 1 1 1 1 1 1 1 1 1 1 1 2 2 3 4 4 4 3 3 2 2 2 3 3 4 4
0 0 0 0 0 0 0 0 0 0 0 0 0 0 0 0 1 1 1 1 1 1 1 1 1 1 1 1 1 2 2 3 3 4 4 3 3 3 3 3 2 3 3 2
0 0 0 0 0 0 0 0 0 0 0 0 0 0 0 0 0 1 1 1 2 3 3 2 2 2 2 2 1 1 2 2 3 3 2 2 2 3 2 2 2 2 2 1
0 0 0 0 0 0 0 0 0 0 0 0 0 0 0 0 0 0 1 2 4 5 4 4 3 3 2 2 1 1 1 2 2 2 2 2 2 2 2 1 1 1 1 1
0 0 0 0 0 0 0 0 0 0 0 0 0 0 0 0 1 1 1 3 6 6 6 5 4 4 3 2 2 1 1 1 1 1 1 1 2 1 1 1 1 1 0 0
0 0 0 0 0 0 0 0 0 0 0 0 0 0 0 0 1 2 2 4 6 7 7 6 5 4 2 1 2 2 2 1 1 1 1 1 1 1 1 1 1 1 1 0
0 0 0 0 0 0 0 0 0 0 0 1 0 0 0 0 1 2 3 5 7 8 8 7 5 3 1 1 2 2 3 2 2 1 1 1 1 1 1 1 1 1 1 1
0 0 0 0 0 0 0 0 0 0 0 0 0 0 0 0 1 2 3 6 8 9 8 6 4 2 1 1 2 3 3 3 2 2 1 1 1 1 1 1 1 1 1 1
0 0 0 0 0 0 0 0 0 0 0 0 0 0 0 0 1 1 3 6 9 9 7 5 3 2 1 1 1 3 4 4 4 3 2 1 1 1 1 1 1 1 1 1
0 0 0 0 0 0 0 0 0 0 0 0 0 0 0 1 1 1 3 6 9 8 6 4 2 2 1 1 2 2 4 5 5 4 3 2 2 1 1 1 1 1 1 1
0 0 0 0 0 0 0 0 0 0 0 0 0 0 1 1 1 1 2 5 7 7 4 3 2 1 1 2 2 2 4 5 6 5 4 3 2 1 1 2 2 1 1 1
0 0 0 0 0 0 1 1 0 0 0 0 0 0 1 1 2 2 2 4 5 5 3 2 2 1 1 2 2 3 4 5 6 6 5 4 3 2 2 2 2 2 2 1
0 0 0 0 0 1 1 1 1 1 1 1 1 1 1 1 1 2 2 3 3 3 2 2 2 2 2 2 2 3 5 7 7 7 5 5 4 2 2 2 2 2 2 2
0 0 0 0 0 1 1 1 1 2 2 2 1 1 1 2 2 2 2 2 2 2 2 2 2 2 2 2 3 4 7 8 8 7 6 5 4 3 2 2 2 3 3 3
0 0 0 0 0 1 1 1 1 1 2 1 1 1 2 2 2 2 2 2 2 2 2 2 2 3 2 3 3 5 8 10 9 8 7 6 5 4 3 3 3 3 3 3
0 0 0 0 0 1 1 1 1 1 1 1 1 1 2 2 2 2 1 1 1 1 2 2 2 3 3 3 4 6 8 10 10 9 8 7 5 4 4 3 3 3 4 4
0 0 0 0 0 1 1 1 1 1 1 1 1 2 2 2 2 2 1 1 1 1 1 2 2 3 4 5 6 6 7 9 10 10 9 8 6 4 4 4 3 4 4 5
0 0 0 0 0 0 1 1 1 1 1 1 1 2 2 2 2 2 2 2 1 1 2 2 3 3 5 7 8 7 6 7 9 9 8 7 6 5 4 4 4 4 4 4
0 0 0 0 0 0 1 1 1 1 1 1 1 2 2 1 2 2 2 2 2 3 3 3 3 4 6 8 9 8 6 6 8 8 7 6 6 6 5 4 4 4 4 3
0 0 0 0 0 0 1 1 1 1 1 1 2 2 2 1 1 2 2 3 4 5 5 5 5 5 6 8 9 8 7 7 7 7 7 6 6 6 5 5 5 4 4 4
1 1 1 1 1 1 1 1 0 0 1 1 3 3 2 2 1 2 3 3 4 6 7 7 7 7 7 7 8 8 7 7 7 7 7 7 6 5 5 5 5 5 4 4
1 1 1 1 1 1 1 1 0 0 1 2 5 4 2 2 2 2 3 3 4 5 7 9 9 9 8 8 8 7 7 6 7 7 7 7 6 6 5 5 4 4 3 3
1 1 1 1 1 1 1 1 0 0 1 3 6 4 2 2 2 3 4 4 3 4 6 9 10 10 10 9 7 6 6 6 6 7 7 7 7 6 5 4 3 2 2 2

GEFSCGP_con_maxscp_294.txt.gz
SCP
0 0 0 0 0 0 0 0 0 0 0 0 0 0 1 1 1 1 1 1 1 1 1 1 1 0 1 1 1 2 3 4 4 5 5 5 4 4 3 3 3 3 3 3
0 0 0 0 0 0 0 0 0 0 0 0 0 0 1 1 1 1 1 1 1 1 1 1 1 1 1 1 1 2 2 3 4 4 5 5 5 4 4 4 4 3 4 4
0 0 0 0 0 0 0 0 0 0 0 0 0 0 1 1 1 1 1 2 1 1 1 1 1 1 1 1 1 1 2 2 3 4 4 4 5 5 4 4 4 4 5 5
0 0 0 0 0 0 0 0 0 0 0 0 0 0 0 1 1 1 2 2 1 1 1 1 1 1 1 1 1 2 2 3 4 4 4 4 4 4 4 4 4 5 5 5
0 0 0 0 0 0 0 0 0 0 0 0 0 0 0 1 1 1 2 2 1 1 1 1 1 1 1 1 2 3 4 5 5 4 4 4 4 3 3 4 5 5 6 5
0 0 0 0 0 0 0 0 0 0 0 0 0 0 0 1 1 1 1 1 1 1 1 1 1 2 2 2 3 5 6 6 5 4 4 4 3 3 3 4 4 5 6 5
0 0 0 0 0 0 0 0 0 0 0 0 0 0 0 1 1 1 1 1 1 1 1 1 2 3 4 4 5 6 7 7 5 4 4 4 3 3 3 3 4 5 5 5
0 0 0 0 0 0 0 0 0 0 0 0 1 0 0 1 1 1 1 1 1 1 1 1 2 4 5 5 5 6 6 6 5 4 4 4 3 3 3 3 3 4 4 4
0 0 0 0 0 0 0 0 0 0 0 0 1 1 1 1 1 1 1 1 1 1 1 2 3 4 5 5 5 5 5 5 4 5 4 4 3 3 3 3 3 3 3 3
0 0 0 0 0 0 0 0 0 0 0 0 0 1 1 1 2 1 1 1 1 1 2 3 4 6 5 5 4 4 4 4 4 4 5 4 3 3 3 3 3 2 2 2
0 0 0 0 0 0 0 0 0 0 0 0 0 1 1 2 2 1 1 1 2 2 2 4 7 7 5 4 3 3 3 3 3 4 5 5 4 4 4 3 2 2 2 2
0 0 0 0 0 0 0 0 0 0 0 0 1 1 1 1 2 1 1 2 2 2 3 6 8 7 4 3 2 2 2 3 3 3 4 5 5 5 4 3 2 2 2 2
0 0 0 0 0 0 0 0 0 0 0 1 1 1 1 1 1 1 1 2 2 2 4 7 7 5 3 2 2 2 2 3 2 3 3 5 5 5 4 3 3 2 2 2
0 0 0 0 0 0 0 0 0 0 0 1 1 1 1 1 1 1 2 2 3 3 4 5 5 4 3 3 3 3 3 3 3 3 4 5 5 5 5 4 4 3 3 2
0 0 0 0 0 0 0 0 0 0 1 1 1 1 2 2 2 2 2 3 3 3 3 4 4 4 4 3 3 3 3 3 3 4 4 4 4 5 4 5 5 4 4 3
0 0 0 0 0 0 1 1 0 1 1 1 1 2 2 2 2 2 3 3 3 4 4 4 5 4 4 3 3 4 4 4 4 4 4 4 4 4 5 5 5 5 5 4
0 0 0 0 0 1 1 1 0 1 1 1 1 2 2 1 2 2 2 3 3 3 4 4 4 4 4 3 4 4 4 4 4 4 5 4 4 4 5 5 6 6 6 6
0 0 0 0 1 1 1 0 0 1 1 1 2 2 2 2 2 2 2 3 3 3 3 3 4 4 4 4 4 5 5 5 5 5 5 5 5 6 6 7 8 9 9 8
1 1 0 0 1 1 0 0 1 1 1 1 2 2 2 2 2 2 3 3 4 3 3 3 3 4 4 5 5 6 6 6 7 7 7 7 8 8 10 12 13 13 11 10
1 1 0 0 1 1 1 1 1 1 1 1 2 3 3 3 2 2 3 4 4 4 4 4 4 3 4 5 6 7 8 8 8 8 9 9 10 12 15 18 18 15 12 11
1 1 1 0 1 1 1 1 1 1 1 2 2 3 4 3 3 3 3 4 4 4 4 4 4 3 3 4 6 8 8 8 8 9 11 12 14 16 20 23 21 16 13 12
1 1 1 1 1 1 2 2 2 3 2 3 3 4 4 4 3 3 3 3 4 5 5 5 5 4 3 4 6 7 7 7 9 10 13 15 17 19 23 23 19 15 13 13
1 1 1 1 1 2 2 3 3 4 4 4 5 5 5 4 4 4 4 4 5 6 6 6 5 4 4 4 5 6 7 8 9 12 14 17 20 21 20 17 14 13 13 13
1 1 1 2 2 2 2 3 3 4 4 5 5 5 4 4 5 5 6 6 6 7 7 6 5 4 5 5 6 7 8 9 11 13 15 17 18 17 14 12 11 11 12 12
1 1 2 2 2 2 2 2 2 3 3 5 5 4 4 4 5 6 6 7 7 7 7 6 6 6 7 8 8 9 10 11 12 13 14 15 13 12 10 9 9 9 9 8
1 1 2 1 1 2 2 2 2 2 3 4 5 4 4 4 4 5 6 7 7 7 7 7 8 8 9 10 11 11 11 12 12 12 13 13 12 10 9 9 8 7 6 5

GEFSCGP_con_maxscp_300.txt.gz
SCP
0 0 0 0 0 0 0 0 0 0 0 0 0 1 1 2 2 1 1 2 3 3 2 2 1 1 2 2 4 6 6 5 5 5 6 6 5 4 3 3 4 6 6 6
0 0 0 0 0 0 0 0 0 0 0 0 0 1 1 2 2 1 1 2 3 3 3 2 2 2 2 3 4 6 7 8 7 6 7 7 5 3 3 3 4 6 7 7
0 0 0 0 0 0 0 0 0 0 1 1 0 1 1 2 1 1 1 2 3 3 3 2 2 2 2 3 5 7 10 11 9 8 7 7 5 4 3 4 5 7 7 7
0 0 0 0 0 0 0 0 0 0 1 0 0 1 1 1 1 1 1 2 2 3 3 2 3 3 2 3 5 9 11 11 9 7 7 7 6 5 5 5 6 6 6 6
0 0 0 0 0 0 0 0 0 0 0 0 0 1 1 2 2 2 2 2 2 3 3 3 4 4 3 3 5 9 11 9 7 7 8 9 8 7 6 6 6 5 5 5
0 0 0 0 0 0 0 0 0 0 0 0 0 1 1 2 3 3 2 2 3 3 3 3 4 5 4 4 6 10 12 10 9 9 10 11 10 8 7 6 5 5 5 5
0 0 0 0 0 0 0 0 1 0 0 0 1 1 2 3 3 3 3 3 2 3 3 3 4 5 5 5 7 12 16 15 12 10 9 9 9 8 6 5 5 4 4 5
0 0 0 0 0 0 0 0 1 0 0 0 1 2 3 3 2 2 2 2 3 3 3 3 3 4 5 6 9 14 18 17 13 8 6 6 7 7 6 5 4 4 5 5
0 0 0 0 0 0 0 0 0 0 0 0 1 2 3 2 1 1 2 2 3 4 3 3 3 3 4 6 10 15 17 15 11 8 5 5 5 5 5 4 5 6 7 7
0 0 0 0 0 0 0 0 0 0 0 0 1 2 2 2 1 1 2 2 3 4 4 4 3 4 4 6 8 11 12 13 12 9 6 5 4 4 4 4 6 8 9 9
0 0 0 0 0 0 0 0 0 1 1 0 1 1 2 2 1 2 2 3 3 4 5 4 4 5 5 5 6 7 9 11 13 12 9 6 5 4 5 6 7 9 9 8
1 0 0 0 0 0 0 0 0 1 1 1 1 2 2 3 2 2 3 3 4 5 5 4 5 5 6 7 7 7 7 8 11 13 12 8 6 6 6 7 8 8 7 7
0 0 0 0 0 0 0 0 0 0 1 0 1 2 4 4 4 3 3 4 5 6 5 5 5 7 9 9 9 8 6 6 8 12 13 11 8 7 8 8 8 8 7 7
0 0 0 0 0 0 0 0 0 0 0 1 2 3 5 6 5 4 4 5 6 6 7 7 8 10 11 11 10 9 8 7 8 10 12 11 10 9 9 9 8 8 7 6
0 0 0 0 0 0 0 0 0 0 1 2 3 5 6 6 5 5 5 6 6 7 8 8 9 11 11 11 11 11 10 9 9 9 11 12 11 10 9 8 7 7 6 6
0 1 0 0 0 0 0 0 1 1 1 2 4 5 5 5 4 4 5 5 6 6 6 8 9 10 10 10 11 10 10 10 9 8 9 11 12 11 10 8 6 6 7 7
1 1 1 0 0 0 1 1 1 1 2 2 3 3 3 3 4 4 4 5 5 5 6 7 9 10 9 8 8 9 9 10 10 9 9 10 11 12 11 9 8 8 8 9
2 2 1 0 0 1 1 1 1 1 1 2 2 2 2 3 4 4 4 5 5 6 7 8 10 10 10 9 8 8 9 11 12 13 12 11 11 12 12 11 12 12 11 10
2 2 1 1 0 1 1 1 1 1 1 2 2 3 3 4 4 4 4 4 5 6 8 10 11 11 11 12 12 11 13 15 17 17 16 15 14 14 14 14 15 16 15 13
1 1 1 1 0 1 1 0 0 1 2 3 5 6 6 6 6 6 6 6 6 7 9 11 13 12 12 13 14 15 16 18 18 16 16 17 17 17 16 17 18 19 19 19
1 1 1 1 0 0 0 0 1 2 3 5 7 8 8 8 8 8 7 6 6 7 10 13 14 13 11 10 11 13 14 14 12 11 13 16 18 19 18 18 21 24 25 24
1 1 1 1 1 1 1 2 2 3 5 5 7 8 8 8 9 10 9 7 6 8 11 14 15 13 10 8 8 10 10 9 8 8 10 13 17 18 18 21 26 30 28 24
1 1 1 2 2 3 3 4 4 5 5 6 7 7 7 7 8 10 11 8 7 9 13 15 15 13 10 8 8 10 11 11 10 9 10 12 15 18 20 25 30 30 25 19
1 2 2 3 4 5 6 5 5 5 5 7 7 7 6 6 7 10 12 10 8 10 15 16 15 13 10 8 9 11 13 15 14 12 11 12 15 19 25 28 26 20 14 12
1 2 3 4 5 6 5 5 4 5 6 7 7 7 7 6 7 9 11 10 10 12 15 16 15 12 11 10 10 12 15 16 15 14 13 14 17 22 25 22 16 10 7 7
2 2 3 4 5 5 5 4 5 6 8 9 9 9 8 8 9 10 11 10 11 13 15 15 13 11 11 11 11 13 16 16 16 15 13 16 21 24 20 14 9 7 6 5

GEFSCGP_con_maxscp_306.txt.gz
SCP
0 0 0 0 0 0 0 0 1 0 0 1 1 1 1 1 2 2 3 2 2 1 1 1 1 2 2 2 3 5 6 6 6 4 3 4 5 6 6 5 5 4 3 3
0 0 0 0 0 0 0 0 0 0 0 1 1 1 1 2 2 2 2 2 2 1 1 1 2 2 3 5 6 7 7 6 5 3 3 5 6 7 6 5 4 3 3 3
0 0 0 0 0 0 0 0 0 0 0 1 1 1 1 2 2 2 2 2 1 1 1 1 2 3 5 8 9 8 7 5 3 2 3 6 7 7 6 4 3 3 3 4
0 0 0 0 0 0 0 0 0 0 0 0 0 1 2 2 1 1 2 2 1 1 2 2 2 5 7 9 8 7 4 3 2 2 3 5 6 5 4 3 3 3 3 4
0 0 0 0 0 0 0 0 0 0 0 0 0 1 1 1 1 1 1 1 1 1 1 2 4 7 9 8 6 4 3 2 2 2 3 3 3 3 2 2 2 2 2 2
0 0 0 0 0 0 0 0 0 0 0 0 0 1 1 1 1 1 1 2 2 2 2 3 5 8 8 6 4 3 3 3 3 3 2 2 2 1 1 1 1 1 2 2
0 0 0 0 0 0 0 0 0 0 0 0 0 1 1 1 1 1 1 2 2 3 3 4 5 7 7 5 4 3 3 3 3 3 3 3 2 2 2 1 1 1 1 1
0 0 0 0 0 0 0 0 0 0 0 0 0 1 1 1 0 1 1 2 3 3 4 4 4 5 5 4 3 3 2 2 3 3 3 3 3 2 2 2 2 2 2 1
0 0 0 0 0 0 0 0 0 0 0 0 0 1 1 1 1 1 2 3 3 3 3 4 4 4 4 4 3 3 3 3 3 3 3 3 3 3 2 2 2 2 2 1
0 0 0 0 0 0 0 0 0 0 0 0 0 0 1 1 1 2 3 3 3 3 3 3 3 3 4 4 4 3 3 3 3 3 3 3 3 3 3 3 3 3 2 1
0 0 0 0 0 0 0 0 0 0 0 0 0 0 1 1 2 2 3 3 4 4 4 3 3 3 3 4 4 4 4 3 3 3 3 3 3 3 4 4 4 3 3 2
0 0 0 0 0 0 0 0 0 0 0 0 0 1 1 1 1 2 3 4 5 6 5 4 3 3 3 4 4 4 4 3 3 3 2 3 3 3 3 4 4 4 4 3
0 0 0 0 0 0 0 0 0 0 0 0 1 1 1 1 1 2 3 5 6 7 7 5 4 3 3 3 4 4 4 4 4 3 3 2 2 3 3 3 4 4 4 4
0 0 0 0 0 0 0 0 0 0 0 0 1 1 2 1 2 2 4 5 7 8 8 6 4 3 3 3 4 4 4 4 4 4 3 3 3 3 3 3 3 3 3 3
0 0 0 0 0 0 0 0 1 1 1 1 1 2 2 3 3 4 5 6 7 8 7 6 4 4 3 3 4 5 5 4 4 4 3 3 3 3 3 3 3 3 3 3
0 0 0 0 0 0 0 1 1 1 1 2 2 2 2 3 4 6 6 7 7 7 6 5 4 4 4 4 5 5 5 5 4 4 3 3 3 3 3 3 3 3 3 4
0 0 0 0 0 0 0 0 1 1 2 2 2 2 2 3 4 6 6 7 7 7 6 4 4 5 5 5 6 7 7 6 5 4 4 3 3 4 4 5 5 5 6 6
0 0 0 0 0 0 0 1 1 2 2 2 2 2 2 3 4 5 5 6 7 6 5 4 4 5 6 7 9 9 9 7 5 4 4 4 5 5 6 6 7 7 8 8
0 0 0 0 0 1 1 1 2 2 2 2 2 2 2 3 3 3 3 4 4 5 5 5 4 4 6 9 11 12 11 8 6 5 4 5 7 8 7 7 7 8 9 10
0 0 0 0 0 1 1 1 2 2 1 1 1 2 2 3 3 2 2 2 2 3 4 5 4 4 5 8 11 12 11 8 6 4 4 6 8 8 7 6 6 7 8 9
1 0 0 0 1 1 1 1 1 1 1 1 1 1 2 2 2 2 2 2 1 2 3 4 5 4 4 5 7 9 8 7 5 4 4 5 6 6 5 4 5 6 7 8
0 0 0 0 1 1 1 1 0 0 0 0 1 1 2 2 2 2 2 2 1 1 2 4 4 4 3 3 4 5 5 5 4 4 4 5 5 5 4 4 4 5 6 8
0 1 1 2 2 1 1 1 1 1 0 0 1 1 2 3 3 3 3 2 1 1 2 3 3 3 3 3 3 3 3 3 3 3 4 5 5 6 6 5 5 5 7 8
0 1 3 4 4 4 3 2 2 2 1 1 1 2 4 4 5 4 3 2 2 2 2 3 3 3 2 3 3 3 3 2 2 3 4 5 5 6 6 7 6 7 7 7
0 2 4 5 5 6 6 5 5 5 5 5 6 6 7 7 6 6 6 5 3 3 3 3 3 3 3 2 3 3 3 3 2 3 4 5 5 6 6 7 7 7 7 7
1 2 4 5 5 6 7 7 8 8 8 10 12 13 11 9 9 9 9 8 6 4 4 3 3 3 3 3 3 3 3 3 3 4 5 5 5 5 6 7 8 8 7 6